Timeline UpdatesTrip UpdatesNews PostsPvt PostsTravel TipsAdmin PostsConv PostsFollowed PostsChat RequestsBlog PostsPNR Posts

Disclaimer
Search
 
 
Sun Apr 20, 2014 03:52:55 ISTHomeTrainsΣChainsAtlasPNRForumGalleryNewsFAQTripsMembersLoginFeedback
No Recent News for this Train
Other Trains in the News **new
Latest...
.
Sat Feb 02, 2013 (04:11PM)
⇐ Return Journey: Train# 51188

51187/Bhusaval Katni Passenger (UnReserved)

Feb 01 2014 (2:01PM)
Change Departure Station:
Change Arrival Station:
Post a Train Travel TipPost a Train Travel Tip **new
Post a Comment/Question/Picture/VideoPost a Comment/Question/Picture/Video
Pantry/Catering
???
RSA - Rake Sharing
Rake/Coach Composition
Loco
BSL-ET: BSL/ET WAP-4 ET-KTE: ET/KTE WDM-3A
News    PNR    Forum    Time-Table    Availability    Fare Chart    Map    Arr/Dep History    Trips    Gallery    ΣChains    X/O    Timeline    
Travel Time: 16h 30m    65 halts    Distance: 579 km    Avg Speed: 35 km/hr
Type: Passenger
Zone: CR/Central
Departs @ 10:55 (Avg 1h 3m late)
Platform# ???
SMTWTFS
Asirgarh Road/AGQ 
Arrives @ 03:25 +1 night (Avg 3h 17m late)
Platform# ???
SMTWTFS
Katni Junction/KTE 

65 halts. 71 intermediate Stations between Asirgarh Road and Katni Junction

Show ALL intermediate Stations  Show Old Time-Table

#CodeStation NameX/OArrivesAvgDepartsAvgHaltPFDay#KmSpeedElevZoneAddress
1BSLBhusaval Junction (8)  -09:30+29--1-63.437208mCRBhusaval 425201, Maharashtra
2DSKDuskheda (2)X  09:41+3709:42+391m--1-56.747213mCRDuskheda Station, Maharashtra
3SAVSavda (2)X  09:53+3709:54+401m--1-48.048220mCRSavda, Maharashtra
4NBNimbhora  10:05+3910:06+421m--1-39.355229mCRJalgaon, Maharashtra
5RVRaver (2)  10:17+4110:18+461m--1-29.154242mCRJalgaon, Maharashtra
6WGAWaghodaX  10:29+4610:30+491m--1-19.244259mCRChorwad, Maharashtra
7BAUBurhanpur (2)X  10:44+4310:45+521m21-8.960269mCRBurhanpur, Madhya Pradesh
8AGQ»Asirgarh Road (2)»  10:54+5610:55+1:031m--10.068259mCRState Highway 27, Madhya Pradesh
9CDIChandni (2)X  11:04+1:0411:05+1:091m--110.247276mCRNepanagar Rd, Madhya Pradesh
10NPNRNepanagar (2)  11:14+1:0911:15+1:121m--117.350289mCRState Highway 27, Madhya Pradesh
11MWAMandwa (2)X  11:22+1:1111:23+1:121m--123.160317mCRState Highway 27, Madhya Pradesh
12SXASagphata (2)  11:29+1:1311:30+1:131m--129.166350mCRKhandwa, Madhya Pradesh
13DGNDongargaon (2)X  11:37+1:1311:38+1:131m--136.891373mCRBorgaon, Madhya Pradesh
14KDKKohdad (2)X  11:43+1:1311:44+1:131m--144.453344mCRState Highway 15, Madhya Pradesh
15BMABagmar (2)X  11:49+1:1411:50+1:151m--148.890335mCRState Highway 27, Madhya Pradesh
16BRGJBargaon Gujar (2)X  11:54+1:1711:55+1:171m--154.86316mCRKhandwa, Madhya Pradesh
17KNWKhandwa Junction (5)X  12:50+4312:55+535m--159.944310mCRKhandwa, Madhya Pradesh
18MTAMathela (2)  13:05+1:0113:06+1:021m--167.356322mWCRKhandwa, Madhya Pradesh
19TLVTalvadiya (2)  13:15+1:0213:16+1:041m--175.771308mWCRKhandwa, Madhya Pradesh
20SGBJSurgaon Banjari (2)  13:26+1:0313:27+1:041m--187.474298mWCRKhandwa, Madhya Pradesh
21CKKDCharkheda Khurd (2)  13:36+1:0513:37+1:071m--198.651274mWCRKhandwa, Madhya Pradesh
22CAERChhanera (2)  13:45+1:0713:46+1:091m--1105.461283mWCRChhanera, Madhya Pradesh
23BRUDBarud (2)X  13:56+1:0813:57+1:091m--1115.557273mWCRKhandwa, Madhya Pradesh
24DRHIDagarhkeri (2)X  14:07+1:0814:08+1:111m--1125.166274mWCRState Highway 15, Madhya Pradesh
25KKNKhirkiya (2)X  14:18+1:1114:19+1:131m21136.048281mWCRSH 15, Madhya Pradesh
26KROKurawan (2)X  14:27+1:1014:29+1:102m--1142.440297mWCRSH 15, Madhya Pradesh
27BRIBhiringi (2)X  14:39+1:1014:40+1:111m--1149.144294mWCRSH 15, Madhya Pradesh
28MUOMasangaon (2)  14:47+1:1014:48+1:111m--1154.251303mWCRSH 15, Madhya Pradesh
29PALPalasner (2)  14:55+1:1014:56+1:101m--1160.244296mWCRHarda, Madhya Pradesh
30HDHarda (3)X  15:06+1:0915:07+1:121m--1167.653289mWCRHarda, Madhya Pradesh
31CRKCharkhera (2)  15:15+1:1215:16+1:131m--1174.653298mWCRBarkalan, Madhya Pradesh
32TBNTimarni (2)  15:24+1:1815:25+1:221m--1181.771308mWCRTimarni, Madhya Pradesh
33CGOChhidgaon (2)X  15:33+1:1515:35+1:152m--1191.235309mWCRHarda, Madhya Pradesh
34PGLPagdhal (2)X  15:42+1:1515:43+1:171m--1195.355317mWCRPagdhal, Madhya Pradesh
35BIFBhaironpur (2)X  15:51+1:1615:52+1:171m--1202.655322mWCRSH 15, Madhya Pradesh
36BPFBanapura (2)  16:00+1:1616:01+1:191m--1209.955314mWCRBanapura, Madhya Pradesh
37DKIDharamkundi (2)  16:10+1:1816:11+1:191m--1218.155314mWCRSH 15, Madhya Pradesh
38KTZKhutwansa (2)X  16:19+1:1616:20+1:161m--1225.538325mWCRSH 15, Madhya Pradesh
39DRADularia (2)O  16:29+1:1216:30+1:151m--1231.112318mWCRItarsi, Madhya Pradesh
40ETItarsi Junction (7)X  17:30+5217:50+5620m--1243.463329mWCRItarsi 461111, Madhya Pradesh
41GROGurra (2)  18:00+1:2718:02+1:312m--1253.960327mWCRItarsi, Madhya Pradesh
42SQLSontalai (2)  18:11+1:3318:13+1:432m--1262.946329mWCRItarsi, Madhya Pradesh
43BGTABagra Tawa (2)X  18:22+1:4518:24+1:452m--1269.871338mWCRBagra Tawa, Madhya Pradesh
44GMDGuramkhedi (2)  18:35+1:4718:37+1:492m--1282.960337mWCRSohagpur, Madhya Pradesh
45SGPSohagpur (2)XO  18:47+1:4918:49+1:592m--1292.960340mWCRSohagpur, Madhya Pradesh
46SXFSobhapur (2)  18:58+2:0019:00+2:002m--1301.965338mWCRState Highway 22, Madhya Pradesh
47PPIPipariya (3)X  19:08+2:0419:09+2:261m31310.676338mWCRPiparia, Madhya Pradesh
48BKHBankhedi (2)X  19:24+2:2519:25+2:261m--1329.548351mWCRBankheri, Madhya Pradesh
49JHTJunehta (2)X  19:33+2:2519:34+2:251m--1335.961353mWCRState Highway 22, Madhya Pradesh
50SCKRSalichauka Road (2)X  19:44+2:2519:45+2:351m--1346.170355mWCRGadarwara, Madhya Pradesh
51GARGadarwara (2)  19:57+2:3319:58+2:491m11360.065352mWCRNarsinghpur, Madhya Pradesh
52BNEBohani (2)O  20:10+2:5020:11+3:031m21372.945361mWCRNarsinghpur, Madhya Pradesh
53KFYKarapgaon (2)X  20:20+3:0120:21+3:011m--1379.738364mWCRNational Highway 26, Madhya Pradesh
54KYKareli (2)X  20:34+2:5820:35+3:161m11387.943361mWCRKareli, Madhya Pradesh
55NUNarsinghpur (2)  20:58+3:0621:00+3:222m11404.350365mWCRNarsimhapur, Madhya Pradesh
56GPCGhatpindrai (2)X  21:07+3:2521:08+3:361m--1410.137366mWCRGhatpindra, Madhya Pradesh
57BELDBelkhera (2)O  21:17+3:3421:18+3:351m--1415.633367mWCRState Highway 22, Madhya Pradesh
58KKBKarak Bel (2)XO  21:26+3:3421:28+3:372m11420.013375mWCRKarak Bel, Madhya Pradesh
59SRIDShridham (3)O  22:38+2:3622:40+2:522m21435.355373mWCRShridham, Madhya Pradesh
60BMRBikrampur (2)  22:53+2:5922:54+3:011m--1447.258353mWCRBikrampur Dist Narsingpur., Madhya Pradesh
61BHTNBhitoni (2)X  23:06+2:5923:07+3:021m--1458.866377mWCRJabalpur, Madhya Pradesh
62BRGTBheraghat (2)X  23:19+3:0123:20+3:031m--1471.918389mWCRBheraghat, Madhya Pradesh
63MMLMadan Mahal (3)  00:03+2:2700:05+2:292m32485.06428mWCRJabalpur, Madhya Pradesh
64JBPJabalpur Junction (7)X  00:40+2:2000:50+2:3210m--2488.644416mWCRJabalpur, Madhya Pradesh
65ADTLAdhartal (2)  01:01+2:2901:03+2:312m--2496.559393mWCRJabalpur, Madhya Pradesh
66DOEDeori (2)X  01:12+2:3001:14+2:322m--2505.363392mWCRJabalpur, Madhya Pradesh
67GSPRGosalpur (2)X  01:24+2:3101:26+2:332m--2515.974396mWCRJabalpur, Madhya Pradesh
68SHRSihora Road (2)X  01:35+2:3201:37+2:382m--2527.075388mWCRJabalpur, Madhya Pradesh
69DDCEDundi (2)O  01:49+2:4001:51+2:432m--2541.971415mWCRDundi, Madhya Pradesh
70SBDSleemanabad Road (2)X  01:59+2:4102:01+2:442m--2551.441434mWCRSleemanabad, Madhya Pradesh
71SNRRSansarpur (2)  02:11+2:2602:13+2:262m--2558.318436mWCRNational Highway 7, Madhya Pradesh
72NWRNiwar (2)  02:39+2:2502:40+2:261m--2566.069412mWCRPipraundh, Madhya Pradesh
73MDRRMadhavnagar Road (2)X  02:47+2:3502:49+2:352m--2574.19398mWCRMadhavnagar, Madhya Pradesh
74KTE•Katni Junction (6)•  03:25+3:17---2579.2-387mWCRKatni, Madhya Pradesh
Scroll to Top
Scroll to Bottom